Location: Ottawa
(45.4170°N, 75.7000°W)
Time: 22:54:39
(UTC-04:00)

ISS - Pass Details

Date: 24 May 2021
Orbit: 417 x 422 km, 51.6° (Epoch: 13 June)

Event Time Altitude Azimuth Distance (km) Brightness Sun altitude
Rises 23:12:12 0° 299° (WNW) 2,368 1.0 -19.2°
Reaches altitude 10° 23:14:19 10° 303° (WNW) 1,503 -0.1 -19.4°
Maximum altitude 23:17:40 59° 24° (NNE) 492 -3.3 -19.7°
Enters shadow 23:18:15 49° 70° (ENE) 554 -3.3 -19.7°
